Weather observations for the past three days for
Pohnpei Island
Imperial (Metric)
Date Time (+11) Wind (mph) Vis. (mi.) Weather Sky Cond. Temperature (ºF) Relative Humidity Wind Chill (°F) Heat Index (°F) Pressure Precipitation (in)
Air Dwpt 6 hour altimeter (in) sea level (mb) 1 hr 3 hr 6 hr
Max. Min.
07 00:54 W 5 15.00 Mostly Cloudy FEW018 BKN300 78.8 77 94% 83 29.86 0.0
06 23:53 W 5 15.00 Mostly Cloudy FEW018 BKN300 78.8 77 94% 83 29.86 0.0
06 22:54 W 5 15.00 Mostly Cloudy FEW018 BKN300 78.8 77 94% 83 29.87 0.0
06 21:54 W 5 15.00 Mostly Cloudy FEW018 SCT300 BKN300 80.6 77 89% 87 0 0.0
06 20:54 W 5 15.00 Mostly Cloudy FEW018 SCT300 BKN300 80.6 77 89% 87 0 0.0
06 19:57 W 6 15.00 Overcast SCT018 SCT300 OVC300 82.4 78.8 89% 92 29.84 0.0
06 18:59 W 6 15.00 Overcast SCT018 SCT300 OVC300 82.4 77 84% 91 29.84 0.0
06 17:52 SE 6 15.00 Mostly Cloudy SCT018 SCT300 BKN300 86 78.8 79% 99 29.8 0.0
06 16:57 E 6 15.00 Mostly Cloudy SCT018 SCT300 BKN300 87.8 80.6 79% 105 29.79 0.0
06 13:53 E 12 15.00 Partly Cloudy SCT018 SCT300 89.6 78.8 71% 105 29.79 0.0
06 12:58 E 9 15.00 Partly Cloudy SCT018 SCT300 89.6 78.8 71% 105 29.82 0.0
06 11:54 E 9 15.00 Partly Cloudy SCT018 SCT300 89.6 78.8 71% 105 29.85 0.0
06 10:52 E 7 15.00 Mostly Cloudy SCT018 BKN300 87.8 80.6 79% 105 29.86 0.0
06 09:53 E 7 15.00 Partly Cloudy SCT018 SCT300 87.8 78.8 75% 102 29.87 0.0
06 08:53 E 5 15.00 A Few Clouds FEW018 FEW300 86 78.8 79% 99 29.87 0.0
06 08:15 E 5 15.00 A Few Clouds FEW018 FEW300 84.2 78.8 84% 96 29.87 0.0
05 14:50 N 5 15.00 Overcast BKN017TCU OVC300 84.2 78.8 84% 96 29.81 0.0
05 13:51 N 5 13.00 Overcast BKN017TCU OVC300 82.4 78.8 89% 92 29.83 0.0
05 12:52 NW 9 15.00 Overcast BKN018TCU BKN130 OVC300 86 78.8 79% 99 29.85 0.0
05 11:58 NW 9 15.00 Overcast SCT018 BKN130 OVC300 86 78.8 79% 99 29.86 0.0
05 10:54 NW 6 15.00 Overcast SCT017TCU BKN130 OVC300 86 78.8 79% 99 29.88 0.0
05 09:56 W 6 15.00 Overcast SCT017TCU BKN130 OVC300 82.4 77 84% 91 29.88 0.0
05 08:57 NW 6 10.00 Light Rain BKN017TCU OVC120 78.8 77 94% 83 29.9 0.0
04 15:51 W 14 G 23 13.00 Light Showers Rain BKN017TCU OVC130 78.8 77 94% 83 29.86 0.0
04 14:57 W 14 15.00 Overcast BKN018TCU OVC130 84.2 78.8 84% 96 29.86 0.0
04 13:51 W 15 15.00 Overcast BKN018TCU OVC130 87.8 78.8 75% 102 29.87 0.0
04 12:54 W 14 15.00 Overcast SCT018 BKN130 OVC300 87.8 78.8 75% 102 29.89 0.0
04 11:56 NW 15 15.00 Mostly Cloudy SCT018 SCT130 BKN300 87.8 78.8 75% 102 29.91 0.0
04 10:54 NW 13 15.00 Mostly Cloudy SCT018 BKN300 87.8 78.8 75% 102 29.91 0.0
04 09:58 W 12 15.00 Mostly Cloudy SCT018 BKN300 87.8 78.8 75% 102 29.93 0.0
04 08:54 W 12 15.00 Mostly Cloudy SCT018 BKN300 86 78.8 79% 99 29.93 0.0
04 08:16 W 12 15.00 Mostly Cloudy SCT018 BKN300 84.2 78.8 84% 96 29.93 0.0
Date Time (+11) Wind (mph) Vis. (mi.) Weather Sky Cond. Air Dwpt Max. Min. Relative Humidity Wind Chill (°F) Heat Index (°F) altimeter (in) sea level (mb) 1 hr 3 hr 6 hr
6 hour
Temperature (ºF) Pressure Precipitation (in)